Location: Plymouth Village
(34.0436°N, 117.1717°W)
Time: 01:23:12
(UTC+00:00)

Cosmos 1666 - Pass Details

Date: 10 September 2024
Orbit: 414 x 432 km, 82.5° (Epoch: 06 October)

Event Time Altitude Azimuth Distance (km) Brightness Sun altitude
Rises 12:03:56 0° 344° (NNW) 2,379 6.1 -18.0°
Reaches altitude 10° 12:06:03 10° 337° (NNW) 1,505 5.0 -17.6°
Enters shadow 12:07:55 27° 314° (NW) 841 3.5 -17.2°
